Orbital Elements at Epoch 2459200.5 (2020-Dec-17.0) TDB
Reference: JPL 20 (heliocentric ecliptic J2000)
Element | Value | Uncertainty (1-sigma) | Units |
e | .06439283753588546 | 4.7906e-08 | |
a | 2.763940381807766 | 1.8264e-08 | au |
q | 2.585962417843145 | 1.3009e-07 | au |
i | 7.2188557073704 | 3.8673e-06 | deg |
node | 122.9564721551278 | 3.6993e-05 | deg |
peri | 223.5774101428827 | 4.9697e-05 | deg |
M | 151.6858256387813 | 3.3695e-05 | deg |
tp | 2458493.313547224744 (2019-Jan-09.81354722) | 0.00015665 | TDB |
period | 1678.384397005928 4.60 | 1.6636e-05 4.555e-08 | d yr |
n | .2144919844597009 | 2.126e-09 | deg/d |
Q | 2.941918345772387 | 1.944e-08 | au |
|
| | Orbit Determination Parameters
Additional Information
|